Location: Sihaung
(22.8641°N, 94.0549°E)
Time: 17:49:08
(UTC+00:00)

Cosmos 44 Rocket - Pass Details

Date: 03 March 2021
Orbit: 636 x 754 km, 65.1° (Epoch: 13 April)

Event Time Altitude Azimuth Distance (km) Brightness Sun altitude
Rises 13:31:26 0° 335° (NNW) 3,198 7.1 -24.6°
Reaches altitude 10° 13:33:51 10° 336° (NNW) 2,266 6.2 -25.1°
Enters shadow 13:39:01 89° 5° (N) 743 3.3 -26.3°
